{"data":{"norad_id":55823,"intl_designator":"2023-029AD","name":"ONEWEB-0663","alt_names":[],"object_type":"PAYLOAD","status":"ACTIVE","operator":null,"country":"UK","launch_date":"2023-03-09","launch_site_code":"AFETR","launch_vehicle":null,"mission":null,"orbit_class":"UNKNOWN","rcs_meters":null,"size_class":null,"mass_kg":null,"dimensions":null,"purposes":["comms"],"wikipedia_slug":null,"has_3d_model":false,"image_url":null,"decayed_at":null,"tle_current":{"epoch":"2026-05-25T03:12:55.378656Z","epoch_age_seconds":60106,"freshness":"FRESH","line1":"1 55823U 23029AD  26145.13397429  .00000000  00000+0 -32252-4 0  9993","line2":"2 55823  87.9178 279.0978 0001567  88.1048 272.0265 13.20867351158100","mean_motion":13.20867351,"eccentricity":0.0001567,"inclination_deg":87.9178,"raan_deg":279.0978,"arg_perigee_deg":88.1048,"mean_anomaly_deg":272.0265,"bstar":-3.2252e-5,"rev_number":15810,"period_min":109.01927426019,"perigee_km":1180.2242496539,"apogee_km":1182.5934113172,"semimajor_km":7559.5458304855,"source":"CELESTRAK","updated_at":"2026-05-25T13:38:22.696176Z"}}}